This is the latest recevied weather packets stored in our database for station/object KB1FPD. If no packets are shown the sender has not sent any weather packets the latest 10 day(s).
| Time | Temp. | Humidity | Pressure | Rain* | Wind** | Luminosity | Snow |
|---|---|---|---|---|---|---|---|
| 1777921743 | 21.11° C | 48% | 1011 hPa | 0 mm | - | - | - |
| 1777921443 | 21.11° C | 51% | 1010.9 hPa | 0 mm | - | - | - |
| 1777921144 | 21.11° C | 53% | 1011 hPa | 0 mm | - | - | - |
| 1777920843 | 21.11° C | 52% | 1011.1 hPa | 0 mm | - | - | - |
| 1777920544 | 21.67° C | 45% | 1011.2 hPa | 0 mm | - | - | - |
| 1777920243 | 21.67° C | 50% | 1011.1 hPa | 0 mm | - | - | - |
| 1777919945 | 21.11° C | 51% | 1011.3 hPa | 0 mm | - | - | - |
| 1777919643 | 21.11° C | 51% | 1011.2 hPa | 0 mm | - | - | - |
| 1777919342 | 21.11° C | 50% | 1011.4 hPa | 0 mm | - | - | - |
| 1777919042 | 21.11° C | 47% | 1011.5 hPa | 0 mm | - | - | - |
| 1777918740 | 21.11° C | 51% | 1011.4 hPa | 0 mm | - | - | - |
| 1777918438 | 21.11° C | 56% | 1011.7 hPa | 0 mm | - | - | - |
| 1777918138 | 20.56° C | 49% | 1011.7 hPa | 0 mm | - | - | - |
| 1777917838 | 20.56° C | 50% | 1011.8 hPa | 0 mm | - | - | - |
| 1777917539 | 20.56° C | 54% | 1011.9 hPa | 0 mm | - | - | - |
| 1777917238 | 20.56° C | 49% | 1012 hPa | 0 mm | - | - | - |
| 1777916939 | 20.56° C | 54% | 1011.9 hPa | 0 mm | - | - | - |
| 1777916638 | 20.56° C | 51% | 1012.1 hPa | 0 mm | - | - | - |
| 1777916338 | 20° C | 55% | 1012.1 hPa | 0 mm | - | - | - |
| 1777916039 | 20° C | 46% | 1012.1 hPa | 0 mm | - | - | - |
| 1777915737 | 20.56° C | 55% | 1012.2 hPa | 0 mm | - | - | - |
| 1777915439 | 20° C | 50% | 1012.2 hPa | 0 mm | - | - | - |
| 1777915137 | 20° C | 50% | 1012.3 hPa | 0 mm | - | - | - |
| 1777914836 | 20° C | 52% | 1012.3 hPa | 0 mm | - | - | - |
| 1777914538 | 20° C | 50% | 1012.4 hPa | 0 mm | - | - | - |
* Rain latest hour (hover to see other rain measurements)
** Current wind speed in m/s (hover to see current wind gust speed)